sat.trackr.live / text

‹ back to catalog

STARLINK-35491

NORAD 66113 · 2025-236AD

PAYLOAD ACTIVE UNKNOWN

§ Identity

Operator
Country
US
Launch date
2025-10-19
Launch site
AFWTR
Launch vehicle
Mass (kg)
RCS (m²)

Purposes: comms

External: N2YO · Heavens-Above · Gunter

§ Orbital elements

Epoch: 2026-05-25T04:40:52.070304Z

Period
94.10 min
Inclination
53.1568°
Eccentricity
0.0001122
Mean motion
15.30210654 rev/d
Perigee alt
474.4 km
Apogee alt
476.0 km
Semi-major
6,853.3 km
B*
5.1693e-4
RAAN
108.8109°
Arg perigee
92.0738°
Mean anomaly
268.0392°
Rev number
3,465

§ Raw data

STARLINK-354911 66113U 25236AD  26145.19504711  .00014987  00000+0  51693-3 0  99962 66113  53.1568 108.8109 0001122  92.0738 268.0392 15.30210654 34654

JSON: /api/v1/satellites/66113 · /tle

For live sub-satellite position, see the globe view (requires WebGL).

§ Visibility from observer

Set your observer location to see the next 7 days of passes ≥ 10°. The values pass through the URL so the page stays shareable.

No JS? Fill the form by hand. The geolocation button needs JavaScript.